GFSFLT2_con_lsi_147.txt.gz
Lid_Strength_Index
11 11 11 10 10 10 10 10 10 9 8 7 6 6 6 6 6 6 6 6 6 6 6 7 6 6 6
11 11 11 10 10 10 10 10 10 9 7 7 6 6 6 6 6 6 6 7 7 7 7 7 7 7 6
12 11 11 11 11 11 11 10 9 8 7 6 6 6 6 6 6 6 6 7 7 7 7 8 7 7 7
12 12 11 11 11 12 11 10 9 9 8 7 6 6 6 6 7 7 7 7 8 8 8 7 7 7 7
12 12 12 12 12 11 11 10 9 9 8 8 8 8 7 7 7 8 8 8 8 8 7 7 7 7 7
11 12 12 11 11 11 10 11 11 8 9 9 8 8 8 7 7 7 7 7 8 7 7 7 7 8 8
11 11 11 10 10 10 10 10 10 8 9 9 7 8 7 7 6 7 7 7 7 8 8 8 8 8 8
9 9 9 8 9 9 8 9 9 9 8 11 8 9 7 8 8 7 7 7 8 8 8 8 8 8 9
6 7 7 7 7 9 10 11 11 10 8 9 9 10 9 10 9 9 9 9 8 8 9 9 8 8 8
9 8 7 7 7 7 9 10 10 10 8 10 10 11 12 11 11 11 10 10 9 8 9 9 9 9 9
9 9 9 8 8 7 7 8 9 9 7 9 11 12 12 12 11 11 10 10 11 11 10 9 9 9 10
10 10 10 9 9 8 7 7 7 7 7 9 11 11 13 13 13 12 11 11 11 11 11 10 10 9 8
10 9 9 8 8 8 8 8 8 8 8 9 10 11 12 13 13 13 13 12 11 12 11 11 11 10 11
8 7 7 8 8 8 9 9 10 9 9 9 10 11 13 13 13 13 13 14 12 12 11 11 10 10 10
7 8 8 8 8 8 8 9 11 10 11 12 11 11 12 12 14 13 13 12 11 11 12 12 11 10 10
7 7 8 8 8 9 9 10 11 12 12 12 13 14 14 13 12 13 12 12 11 11 11 12 12 10 9
6 7 7 8 8 9 10 11 12 12 12 13 14 15 16 17 13 10 12 11 11 11 11 11 12 10 9

GFSFLT2_con_lsi_150.txt.gz
Lid_Strength_Index
10 9 9 9 9 9 8 8 8 8 8 8 7 7 6 6 5 5 5 4 4 4 4 4 5 5 5
10 9 10 9 9 9 9 9 9 8 8 8 7 7 6 6 5 5 5 5 5 5 5 5 5 5 5
11 9 9 9 9 9 9 9 9 8 8 7 7 6 6 5 5 5 5 5 5 5 5 5 5 6 6
11 10 9 8 9 10 10 9 9 8 8 8 8 7 6 6 6 5 6 6 5 6 6 6 6 6 6
11 10 10 10 10 10 11 9 8 8 8 8 8 8 7 6 6 5 6 6 6 6 6 6 6 6 6
10 11 10 10 9 10 10 10 10 7 8 9 8 8 7 6 6 6 6 5 5 5 5 6 6 6 6
10 10 10 10 9 9 10 9 9 8 9 10 8 8 7 7 6 6 5 5 5 5 5 6 6 6 6
10 9 9 9 8 8 8 8 8 7 7 11 8 8 7 6 6 6 6 6 6 6 6 6 6 6 6
6 7 7 7 7 8 10 10 10 9 8 10 9 9 7 7 6 6 7 7 7 7 7 7 7 7 7
8 6 5 6 6 7 8 10 9 10 8 9 9 9 10 7 8 8 9 8 8 8 7 8 8 9 9
9 9 7 6 7 7 7 8 9 9 7 8 9 9 9 10 9 9 9 9 9 9 9 8 8 9 9
9 9 8 8 8 7 6 6 6 7 6 7 9 8 9 10 11 10 9 9 10 10 10 9 9 9 9
8 8 6 5 6 6 6 5 5 5 6 7 8 8 8 9 11 11 11 11 10 10 10 11 11 10 11
6 5 6 7 6 5 6 7 8 8 7 7 7 8 9 9 10 11 11 13 11 11 11 11 10 10 10
5 5 6 7 7 6 6 7 8 8 8 8 8 8 8 9 11 11 12 12 11 11 12 12 11 10 10
5 5 5 6 7 7 7 6 7 7 8 8 9 10 11 11 10 12 12 12 11 11 12 13 13 11 9
5 5 5 6 6 7 7 6 7 8 8 8 9 12 14 15 12 10 12 12 12 13 12 11 11 10 9

GFSFLT2_con_lsi_153.txt.gz
Lid_Strength_Index
9 9 9 9 9 9 9 9 9 8 7 7 7 7 7 6 6 6 6 5 5 5 5 4 4 4 3
10 10 9 9 9 10 9 9 9 8 7 7 7 6 6 6 6 6 6 6 6 5 5 5 4 4 3
11 10 9 9 10 10 10 10 9 7 7 7 6 6 6 6 5 6 6 6 6 6 5 5 5 4 4
11 11 10 10 10 11 11 10 10 9 8 8 7 7 6 5 5 6 6 6 6 6 5 5 5 5 4
11 11 11 11 11 10 11 10 10 9 9 9 9 9 8 6 6 6 6 6 6 6 6 5 5 5 5
10 11 10 10 10 11 11 12 13 9 10 10 9 10 9 8 7 6 6 6 6 6 6 5 6 5 5
9 9 10 9 9 10 10 11 11 9 10 11 10 10 9 8 6 6 6 6 6 6 6 5 5 5 5
7 7 7 7 7 8 8 9 9 8 8 12 10 11 10 9 6 6 6 6 6 6 6 5 5 5 5
5 5 4 4 5 8 9 10 10 9 8 9 10 10 10 10 9 6 6 6 6 6 6 6 6 6 6
6 6 5 6 4 6 8 10 10 10 8 9 10 11 12 10 9 10 10 8 7 7 6 6 6 8 9
7 6 6 7 6 6 7 7 9 9 7 8 9 10 10 12 12 11 11 10 10 9 7 7 7 8 11
7 6 6 6 6 4 4 4 4 5 5 6 9 9 9 11 12 11 10 10 10 11 10 9 8 8 8
6 5 5 4 4 5 5 6 6 5 4 5 6 7 8 9 10 10 10 10 10 11 11 11 11 11 12
4 4 3 4 5 5 5 6 7 7 5 5 6 6 8 8 9 10 9 11 10 11 11 12 11 11 12
4 4 4 4 5 5 5 6 7 8 8 7 6 6 6 7 9 9 9 10 10 11 12 13 12 11 12
4 4 4 5 5 5 5 6 7 7 7 7 8 8 8 9 7 9 10 10 11 12 12 13 13 12 11
4 4 4 5 5 5 6 6 7 7 7 7 8 9 11 13 10 7 11 11 13 13 13 13 14 13 12

GFSFLT2_con_lsi_156.txt.gz
Lid_Strength_Index
12 11 12 12 11 10 9 10 10 7 7 7 7 7 7 7 6 6 5 4 4 4 4 4 4 4 4
12 12 12 11 11 12 10 9 10 8 7 7 7 7 7 6 6 6 5 5 5 5 5 4 4 4 5
12 11 11 12 11 11 11 11 10 8 7 6 7 7 6 6 6 5 5 5 5 5 5 4 5 5 5
12 11 11 11 11 11 12 11 11 9 8 8 8 7 6 5 5 5 5 5 5 6 5 5 5 5 6
11 10 11 11 12 10 11 10 10 10 11 10 10 9 9 7 7 6 6 6 6 6 5 5 6 6 6
10 10 9 8 8 9 9 10 11 10 10 11 10 11 10 10 8 7 7 7 7 6 5 6 6 6 6
8 8 9 8 7 8 8 9 9 8 9 10 10 10 9 8 7 7 7 7 6 6 6 6 6 6 6
7 7 6 6 6 6 7 7 7 7 8 10 11 10 10 9 6 6 6 6 7 7 7 7 6 6 6
5 4 4 4 4 5 7 8 9 9 8 9 10 10 11 11 9 5 5 5 6 6 6 6 6 6 6
7 6 5 5 4 5 5 7 7 9 7 8 8 9 11 11 10 9 9 5 6 6 6 6 6 8 8
7 5 5 5 4 3 4 4 5 6 5 5 7 8 8 11 11 10 10 10 10 10 7 7 6 7 9
6 6 6 5 4 3 3 3 2 3 3 3 6 7 8 10 10 11 10 10 10 11 11 8 7 7 6
6 6 5 4 3 3 3 3 2 2 2 3 5 6 7 8 10 10 10 10 10 10 11 11 11 11 12
6 5 4 4 4 3 4 3 4 5 5 5 6 6 7 7 8 12 10 10 9 10 10 11 11 11 11
6 6 5 5 4 4 4 4 5 5 6 6 6 6 6 6 8 8 8 8 8 9 10 11 12 11 10
6 6 6 6 5 4 4 5 6 6 6 6 6 7 7 7 5 9 8 8 8 8 9 11 12 11 10
6 6 6 5 5 5 5 5 6 6 6 6 7 8 11 12 12 5 8 9 9 9 9 10 11 11 11

GFSFLT2_con_lsi_159.txt.gz
Lid_Strength_Index
11 11 13 12 11 11 10 10 10 6 6 6 5 5 6 6 6 6 6 6 5 4 4 4 4 3 3
11 11 12 11 12 11 10 10 10 8 6 5 5 5 5 5 5 6 6 6 6 5 4 4 3 3 3
12 10 10 11 11 11 11 10 9 7 6 5 5 4 4 5 5 5 5 6 6 6 5 4 4 4 3
11 11 10 10 11 10 10 10 10 8 7 6 6 5 4 4 4 5 5 5 5 5 5 5 5 4 4
10 10 9 10 11 9 9 9 8 9 9 9 8 8 7 5 5 5 5 5 5 5 5 5 5 5 5
9 9 9 8 8 8 8 9 10 6 9 9 8 9 8 7 5 5 5 5 5 5 5 5 5 5 5
9 9 9 8 8 9 9 9 9 7 8 9 9 9 8 7 5 5 5 4 5 5 5 6 6 6 6
8 8 7 7 7 7 7 7 6 6 6 8 7 9 8 8 5 5 4 4 4 5 5 5 5 6 6
6 6 5 5 5 6 7 7 8 7 5 6 6 6 7 8 7 4 4 4 4 4 5 5 5 5 6
7 6 6 6 4 4 4 6 6 7 5 5 6 6 7 7 7 6 5 3 3 4 4 5 5 6 8
7 6 7 6 5 4 4 4 5 5 3 3 5 5 6 8 9 6 5 5 4 5 3 4 4 5 8
7 8 7 6 5 5 4 3 3 3 2 2 4 5 5 6 7 8 7 7 6 8 8 6 5 5 5
7 7 6 5 4 4 4 4 3 3 2 2 3 3 4 5 7 8 9 8 8 8 8 9 9 9 11
7 6 5 5 6 5 5 5 5 4 3 2 4 4 5 5 6 8 8 9 9 9 8 9 9 9 10
7 7 6 6 6 5 5 5 6 5 5 4 4 5 5 6 7 7 8 8 9 8 8 9 9 9 9
7 6 6 7 6 6 5 5 6 5 5 5 6 6 6 6 5 7 8 8 8 8 8 9 9 9 8
7 6 6 6 6 7 6 5 6 5 6 7 6 7 9 10 9 5 8 9 8 8 8 8 9 9 9

GFSFLT2_con_lsi_165.txt.gz
Lid_Strength_Index
13 11 11 11 11 11 11 12 11 8 7 6 5 5 5 4 4 3 4 4 3 3 3 3 3 3 3
13 13 13 11 11 12 10 9 10 8 6 6 5 5 4 4 4 3 3 2 3 3 3 3 3 3 3
13 13 13 12 12 12 11 11 10 8 6 6 5 5 5 4 4 3 3 2 2 2 2 3 3 3 3
12 12 13 12 12 12 12 12 11 9 7 6 5 4 4 4 4 3 3 3 2 2 2 2 2 2 2
12 12 12 11 11 10 11 10 10 9 9 9 8 8 7 6 5 5 4 4 3 3 2 1 1 1 2
12 12 11 11 10 10 10 11 12 8 8 9 7 8 7 7 5 4 4 4 4 4 3 2 2 2 1
11 11 11 10 9 10 10 10 10 8 8 9 8 8 7 6 4 4 3 3 3 3 3 3 2 2 2
9 9 8 8 7 8 8 8 8 8 9 10 8 8 7 6 4 3 3 2 3 3 3 3 3 2 2
6 6 5 5 5 7 8 9 10 10 8 7 7 8 7 6 5 2 2 1 1 1 1 1 1 2 2
7 6 6 6 5 6 7 9 9 9 7 7 7 6 7 6 5 4 4 1 0 0 1 1 0 2 2
9 9 9 8 7 7 7 7 8 7 5 5 6 6 6 6 5 5 4 3 3 3 2 1 1 1 2
9 9 9 8 7 7 7 6 5 5 5 4 6 6 7 7 7 5 3 3 3 4 3 2 1 1 0
9 8 8 7 7 7 6 5 5 5 5 5 5 5 5 6 6 5 4 5 4 4 3 4 4 4 3
8 8 7 7 7 7 7 7 7 6 5 4 4 4 5 5 5 5 4 5 6 5 5 4 4 5 5
8 8 8 8 7 7 7 7 7 7 7 6 4 4 4 5 6 6 5 6 7 6 6 7 6 6 6
8 8 8 8 8 7 7 7 7 7 7 6 5 5 6 5 4 6 7 8 7 6 7 8 8 8 7
9 9 8 8 7 9 9 8 8 8 7 6 6 6 12 11 9 4 7 7 8 8 8 8 9 8 8

GFSFLT2_con_lsi_168.txt.gz
Lid_Strength_Index
13 12 12 11 10 11 11 12 11 7 7 7 6 6 6 5 5 4 4 3 3 2 2 2 1 2 2
14 14 13 12 11 11 10 9 10 8 7 6 6 6 6 6 5 5 4 4 3 3 2 1 1 1 1
15 14 14 13 13 12 12 11 10 8 7 7 6 6 5 5 4 4 4 3 3 3 3 2 1 1 1
14 13 12 12 12 12 12 10 10 10 8 7 6 6 5 5 5 5 4 4 4 4 3 2 2 2 1
13 13 12 12 12 11 12 11 10 9 10 9 9 9 8 6 5 5 4 4 4 4 3 3 3 3 2
12 13 12 12 11 11 11 12 13 10 10 10 8 8 7 7 5 4 4 4 4 3 4 3 3 3 3
11 11 12 11 10 10 10 10 10 8 8 9 8 9 8 7 5 4 4 3 3 3 3 3 3 3 3
10 10 9 8 8 7 7 8 8 6 6 10 8 9 7 6 3 3 3 2 2 2 2 3 3 3 3
6 6 5 5 6 8 10 10 10 9 7 9 8 8 7 6 5 2 1 1 1 1 1 1 1 1 2
8 8 7 7 5 7 8 9 9 9 7 8 7 7 8 7 6 5 5 2 2 1 1 0 1 2 3
10 9 9 9 8 8 7 7 8 8 6 6 7 6 7 7 6 6 6 5 4 3 1 1 1 1 2
10 10 9 8 8 8 7 6 6 7 5 5 7 7 7 8 8 6 5 5 4 4 4 2 1 1 1
11 10 9 8 7 7 6 6 6 6 5 5 5 6 6 7 7 6 6 4 3 4 4 4 3 3 4
11 10 9 9 8 8 8 8 8 7 5 5 5 5 6 6 6 6 5 6 5 5 5 4 4 4 4
10 10 9 9 9 8 8 8 9 8 7 6 5 5 5 5 6 6 6 6 5 6 6 7 6 5 5
10 10 10 10 10 9 8 10 10 9 8 7 7 7 6 7 4 6 6 7 6 6 7 8 7 6 5
11 11 12 12 11 11 12 11 10 9 9 8 8 8 9 14 9 4 6 7 7 7 7 8 8 7 7

GFSFLT2_con_lsi_174.txt.gz
Lid_Strength_Index
10 10 10 10 10 9 9 9 9 8 8 8 8 8 7 7 7 7 6 6 5 5 5 4 4 3 3
11 10 10 10 10 11 10 10 9 9 8 8 7 8 7 7 6 6 6 6 5 5 4 4 4 3 3
12 10 11 10 10 10 10 10 10 9 8 7 6 6 6 5 5 5 5 5 5 5 5 5 4 4 3
13 12 11 10 10 11 11 10 10 8 7 6 6 6 5 5 5 5 5 5 5 5 5 4 4 4 3
13 12 12 12 12 11 11 10 8 7 7 7 6 6 5 5 5 5 5 5 5 5 4 4 4 3 3
12 13 12 11 10 10 9 10 11 6 8 7 6 6 5 5 4 4 4 4 4 3 3 3 3 3 3
12 12 11 10 9 9 8 9 8 7 7 8 6 6 4 4 3 3 3 3 3 2 2 2 2 2 2
10 9 8 8 8 8 8 8 7 7 7 9 6 6 4 3 2 2 2 2 2 2 1 2 2 2 1
8 7 7 7 7 8 9 10 10 9 7 8 7 6 5 4 3 2 2 2 2 2 1 1 1 1 1
8 8 8 7 7 7 8 10 10 10 8 9 8 7 7 5 4 3 3 2 2 1 1 1 1 2 2
9 9 8 8 8 7 8 9 10 9 7 7 8 7 7 7 5 3 2 2 1 2 2 1 1 1 2
10 9 9 8 8 8 8 7 7 8 7 7 8 8 8 7 6 3 2 2 3 3 2 1 2 2 1
10 9 8 8 8 7 7 7 7 7 7 6 7 7 7 7 6 5 5 4 3 3 3 3 3 4 4
9 8 8 8 9 8 9 9 9 9 7 7 7 7 7 7 6 7 5 6 4 4 4 4 4 3 3
9 9 10 10 10 10 10 10 11 11 10 8 7 6 6 7 8 6 5 5 5 5 6 6 4 4 4
10 10 10 11 11 11 10 11 12 11 10 9 8 8 8 7 5 6 6 5 4 5 6 7 7 4 4
10 10 10 11 12 12 12 11 12 11 10 9 9 10 11 12 8 6 7 7 6 7 6 7 8 7 5